Regional Weather Roundup
Issued by NWS

Home | Current Version | Previous Version | Graphics & Text | Print | Product List | Glossary On
Versions: 1 2 3 4 5 6 7 8 9 10 11 12 13 14 15 16 17 18 19 20 21 22 23 24 25 26 27 28 29 30 31 32 33 34 35 36 37 38 39 40 41 42 43 44 45 46 47 48 49 50
769
ASUS43 KFSD 180910
RWRSD

WEATHER ROUNDUP FOR SOUTH DAKOTA
NATIONAL WEATHER SERVICE SIOUX FALLS SD
400 AM CDT FRI AUG 18 2017

NOTE: "FAIR" INDICATES FEW OR NO CLOUDS BELOW 12,000 FEET WITH NO
SIGNIFICANT WEATHER AND/OR OBSTRUCTIONS TO VISIBILITY.


SDZ001>005-009-010-012>017-181000-
NORTHWEST AND NORTH CENTRAL SOUTH DAKOTA

CITY           SKY/WX    TMP DP  RH WIND       PRES   REMARKS
BUFFALO          N/A     63  44  50 NW6       29.93S
FAITH            N/A     59  48  67 NW8       29.95R
MOBRIDGE       LGT RAIN  65  60  84 S5        29.86S
$$

SDZ012>016-024>037-041>051-057-063-072>074-181000-
SOUTHWEST AND SOUTH CENTRAL SOUTH DAKOTA

CITY           SKY/WX    TMP DP  RH WIND       PRES   REMARKS
RAPID CTY ARPT CLEAR     61  45  55 NW6       30.00S
PIERRE         CLEAR     61  58  90 S6        29.89R
CUSTER         CLEAR     55  37  50 NW6       30.15S
ELLSWORTH AFB  CLEAR     60  47  63 W8        29.99S
PHILIP         CLEAR     57  50  77 W9        29.93S
PINE RIDGE     CLEAR     52  50  93 W5        30.04S
SPEARFISH      FAIR      63  43  48 W9        30.04S
WINNER         FAIR      61  58  90 S9        29.92S
$$

SDZ004>011-016>023-039-040-181000-
NORTHEAST SOUTH DAKOTA

CITY           SKY/WX    TMP DP  RH WIND       PRES   REMARKS
ABERDEEN       CLOUDY    63  58  83 SW10      29.83R
WATERTOWN      CLOUDY    61  58  90 W7        29.89R
BROOKINGS      LGT RAIN  63  56  78 SW7       29.89R
SISSETON         N/A     60  59  96 CALM      29.85F
$$

SDZ017-020-022-023-036>040-048>070-181000-
SOUTHEAST SOUTH DAKOTA

CITY           SKY/WX    TMP DP  RH WIND       PRES   REMARKS
SIOUX FALLS    LGT RAIN  64  63  96 SE10      29.88S
HURON          RAIN      62  59  90 CALM      29.91S FOG
CHAMBERLAIN    CLOUDY    61  61 100 SE5       29.92F
MITCHELL       CLOUDY    63  61  93 N5        29.94R
YANKTON        CLOUDY    63  58  83 W9        29.91R
$$

ABBREVIATIONS USED IN REMARKS
   TC - TEMPERATURE IN CELSIUS
  WCI - WIND CHILL INDEX
   HX - HEAT INDEX
  VSB - VISIBILITY





USA.gov is the U.S. government's official web portal to all federal, state and local government web resources and services.